Weather Roundup
Issued by NWS

Home | Current Version | Previous Version | Graphics & Text | Print | Product List | Glossary On
Versions: 1 2 3 4 5 6 7 8 9 10 11 12 13 14 15 16 17 18 19 20 21 22 23 24 25 26 27 28 29 30 31 32 33 34 35 36 37 38 39 40 41 42 43 44 45 46 47 48 49 50
000
NZUS93 KARX 060110
HRRWXR

CURRENT HOURLY OBSERVATIONS ACROSS
MUCH OF THE UPPER MISSISSIPPI VALLEY
NATIONAL WEATHER SERVICE LA CROSSE WI
800 PM CDT TUE MAY 05 2015


...SOUTHEAST MINNESOTA...


CITY           SKY/WX    TMP DP  RH WIND       PRES   REMARKS
ROCHESTER      CLOUDY    53  51  93 SE13      30.16S
ROCHESTER/MAYO CLOUDY    53  53 100 E9        30.15S
WINONA         CLOUDY    54  52  94 SE6       30.18R FOG
AUSTIN         LGT RAIN  54  52  94 E12G17    30.13R
ALBERT LEA     CLOUDY    54  54 100 SE13      30.11F
DODGE CENTER   DRIZZLE   54  52  94 SE15      30.14S
PRESTON        CLOUDY    52  50  95 E8        30.16S
OWATONNA       DRIZZLE   54  52  94 E12G22    30.12S
FARIBAULT      CLOUDY    55  52  88 E9G16     30.12F
$$

...ELSEWHERE IN MINNESOTA...


CITY           SKY/WX    TMP DP  RH WIND       PRES   REMARKS
MINNEAPOLIS    CLOUDY    60  54  80 SE10      30.13R
INTNL FALLS    CLEAR     68  25  19 S5        30.07S
DULUTH         PTCLDY    60  26  27 E12       30.14S
RED WING       CLOUDY    61  50  67 SE7       30.14S
REDWOOD FALLS  CLOUDY    59  53  80 SE16G23   30.06S
MANKATO        CLOUDY    55  52  88 SE15      30.10S
WORTHINGTON    CLOUDY    61  55  82 E15       30.05R
FAIRMONT       CLOUDY    57  50  77 E9        30.07R
$$

...SOUTHWEST WISCONSIN...


CITY           SKY/WX    TMP DP  RH WIND       PRES   REMARKS
LA CROSSE      LGT RAIN  56  53  90 SE5       30.18R FOG
PRAIRIE DU CHI CLOUDY    55  54  97 E5        30.16S
BOSCOBEL       LGT RAIN  56  53  90 CALM      30.19R FOG
LONE ROCK      CLOUDY    55  51  86 E9        30.19S
PLATTEVILLE    CLOUDY    55  54  94 E13       30.17S
FORT MC COY    CLOUDY    55  48  76 E9        30.20S
CAMP DOUGLAS   CLOUDY    55  52  88 E10       30.19S
VIROQUA        CLOUDY    53  53 100 E10       30.18R
WIS DELLS      NOT AVBL
$$

...ELSEWHERE IN WISCONSIN...


CITY           SKY/WX    TMP DP  RH WIND       PRES   REMARKS
MILWAUKEE      CLOUDY    47  42  83 NE5       30.24S
MADISON        CLOUDY    54  49  83 E9        30.21R
GREEN BAY      CLOUDY    59  27  29 E3        30.24S
EAU CLAIRE     CLOUDY    63  41  44 SE18      30.17R
BLACK RVR FLS  DRIZZLE   57  47  69 SE9       30.19S
MEDFORD        MOCLDY    58  26  28 SE6       30.21R
WAUSAU         CLOUDY    61  16  17 SE10      30.21S
WIS RAPIDS     CLOUDY    61  34  36 SE9       30.22S
MARSHFIELD     CLOUDY    60  35  39 SE8       30.21R
RICE LAKE      CLOUDY    64  29  27 SE13      30.18R
$$

...NORTHEAST IOWA...


CITY           SKY/WX    TMP DP  RH WIND       PRES   REMARKS
DECORAH        CLOUDY    54  54 100 SE9       30.15S FOG
MASON CITY     CLOUDY    55  54  96 E10       30.11F FOG
CHARLES CITY   CLOUDY    55  55 100 E14       30.12F
OELWEIN        CLOUDY    57  57 100 E14       30.13S FOG
$$

...ELSEWHERE IN IOWA...


CITY           SKY/WX    TMP DP  RH WIND       PRES   REMARKS
DES MOINES     CLOUDY    75  59  57 SE7       30.04R
IOWA CITY      CLOUDY    65  61  87 NE9       30.12R FOG
FORT DODGE     CLOUDY    63  59  88 E16       30.06S
$$

...NORTHERN ILLINOIS...


CITY           SKY/WX    TMP DP  RH WIND       PRES   REMARKS
CHICAGO-OHARE  FOG       49  48  97 NE8       30.21R VSB 3/4
CHICAGO-MIDWAY CLOUDY    55  49  80 N7        30.20R
MOLINE         MOCLDY    65  60  84 E15       30.12R HAZE
ROCKFORD       CLOUDY    53  49  86 E8        30.22R
PEORIA         MOCLDY    74  65  73 E13       30.11R
$$

NOTE: "FAIR" INDICATES FEW OR NO CLOUDS BELOW 12,000 FEET WITH NO
SIGNIFICANT WEATHER AND/OR OBSTRUCTIONS TO VISIBILITY. WIND
SPEEDS ARE IN MILES-PER-HOUR.



USA.gov is the U.S. government's official web portal to all federal, state and local government web resources and services.